TimeCDT,TemperatureF,Dew PointF,Humidity,Sea Level PressureIn,VisibilityMPH,Wind Direction,Wind SpeedMPH,Gust SpeedMPH,PrecipitationIn,Events,Conditions,WindDirDegrees,DateUTC
12:53 AM,57.0,55.9,96,29.86,0.2,Calm,Calm,-,N/A,Fog,Fog,0,2013-06-16 05:53:00
1:53 AM,55.0,54.0,96,29.86,0.2,Calm,Calm,-,N/A,Fog,Fog,0,2013-06-16 06:53:00
2:53 AM,51.1,50.0,96,29.85,0.2,Calm,Calm,-,N/A,Fog,Fog,0,2013-06-16 07:53:00
3:53 AM,48.9,48.0,97,29.85,1.0,Calm,Calm,-,N/A,,Mist,0,2013-06-16 08:53:00
4:05 AM,46.4,46.4,100,29.85,0.8,Calm,Calm,-,N/A,,Mist,0,2013-06-16 09:05:00
4:53 AM,46.9,46.0,97,29.87,0.5,Calm,Calm,-,N/A,Fog,Fog,0,2013-06-16 09:53:00
5:22 AM,46.4,44.6,93,29.86,1.2,Calm,Calm,-,N/A,,Partly Cloudy,0,2013-06-16 10:22:00
5:31 AM,46.4,46.4,100,29.87,0.8,Calm,Calm,-,N/A,,Mist,0,2013-06-16 10:31:00
5:41 AM,44.6,44.6,100,29.87,0.5,Calm,Calm,-,N/A,Fog,Fog,0,2013-06-16 10:41:00
5:53 AM,46.0,45.0,96,29.88,0.5,Calm,Calm,-,N/A,Fog,Fog,0,2013-06-16 10:53:00
6:05 AM,48.2,46.4,93,29.88,0.2,Calm,Calm,-,N/A,Fog,Fog,0,2013-06-16 11:05:00
6:15 AM,50.0,48.2,94,29.88,2.0,Calm,Calm,-,N/A,,Clear,0,2013-06-16 11:15:00
6:22 AM,51.8,51.8,100,29.88,7.0,Calm,Calm,-,N/A,,Clear,0,2013-06-16 11:22:00
6:53 AM,55.0,54.0,96,29.88,10.0,Calm,Calm,-,N/A,,Clear,0,2013-06-16 11:53:00
7:53 AM,60.1,55.0,83,29.89,10.0,South,4.6,-,N/A,,Clear,190,2013-06-16 12:53:00
8:53 AM,66.0,55.0,68,29.88,10.0,Variable,4.6,-,N/A,,Clear,0,2013-06-16 13:53:00
9:53 AM,71.1,54.0,55,29.88,10.0,Variable,3.5,-,N/A,,Clear,0,2013-06-16 14:53:00
10:53 AM,75.0,51.1,43,29.87,10.0,WNW,9.2,18.4,N/A,,Clear,300,2013-06-16 15:53:00
11:53 AM,78.1,48.9,36,29.87,10.0,Variable,6.9,20.7,N/A,,Partly Cloudy,0,2013-06-16 16:53:00
12:53 PM,79.0,48.9,35,29.86,10.0,WNW,8.1,-,N/A,,Scattered Clouds,290,2013-06-16 17:53:00
1:53 PM,79.0,48.0,34,29.85,10.0,Variable,6.9,-,N/A,,Mostly Cloudy,0,2013-06-16 18:53:00
2:53 PM,79.0,46.0,31,29.86,10.0,Variable,6.9,-,N/A,,Mostly Cloudy,0,2013-06-16 19:53:00
3:53 PM,80.1,48.9,34,29.85,10.0,West,8.1,25.3,N/A,,Mostly Cloudy,260,2013-06-16 20:53:00
4:53 PM,82.0,45.0,27,29.82,10.0,Variable,6.9,17.3,N/A,,Mostly Cloudy,0,2013-06-16 21:53:00
5:53 PM,82.0,45.0,27,29.82,10.0,Variable,6.9,-,N/A,,Scattered Clouds,0,2013-06-16 22:53:00
6:53 PM,71.1,48.0,44,29.86,10.0,NNE,9.2,25.3,N/A,,Mostly Cloudy,30,2013-06-16 23:53:00
7:53 PM,68.0,52.0,56,29.85,10.0,Calm,Calm,-,0.00,,Partly Cloudy,0,2013-06-17 00:53:00
8:53 PM,63.0,52.0,67,29.83,10.0,Calm,Calm,-,N/A,,Scattered Clouds,0,2013-06-17 01:53:00
9:53 PM,63.0,53.1,70,29.85,10.0,ENE,8.1,-,N/A,,Mostly Cloudy,60,2013-06-17 02:53:00
10:53 PM,59.0,55.0,87,29.90,4.0,ENE,5.8,-,0.07,Rain,Heavy Rain,60,2013-06-17 03:53:00
11:53 PM,57.0,54.0,89,29.89,10.0,Calm,Calm,-,0.06,,Clear,0,2013-06-17 04:53:00